Change the Weather History Date:

Wednesday, March 13, 2013

  Actual Average Record
Temperature  
Mean Temperature 62 °F 56 °F  
Max Temperature 74 °F 65 °F 82 °F (2004)
Min Temperature 50 °F 47 °F 32 °F (1950)
Degree Days  
Heating Degree Days 3    
Month to date heating degree days 116  
Since 1 July heating degree days 1793  
Cooling Degree Days 0    
Month to date cooling degree days 0  
Year to date cooling degree days 0  
Growing Degree Days 12 (Base 50)    
Moisture  
Dew Point 50 °F    
Average Humidity 73    
Maximum Humidity 96    
Minimum Humidity 49    
Precipitation  
Precipitation 0.00 in 0.09 in 0.62 in (1975)
Month to date precipitation 0.48 1.10  
Year to date precipitation 1.20 6.92  
Since 1 July precipitation 8.97  
Sea Level Pressure  
Sea Level Pressure 30.14 in    
Wind  
Wind Speed 3 mph (North)    
Max Wind Speed 16 mph    
Max Gust Speed 18 mph    
Visibility 8 miles    
Events      
T = Trace of Precipitation, MM = Missing Value Source: NWS Daily Summary

Daily Weather History Graph

Daily Weather History Graph

Search for Another Location

Airport or City:

Trip Planner

Search our weather history database for the weather conditions in past years. The results will help you decide how hot, cold, wet, or windy it might be!

Date:

Astronomy

Mar. 13, 2013 Rise Set
Actual Time 7:21 AM PDT 7:13 PM PDT
Civil Twilight 6:55 AM PDT 7:39 PM PDT
Nautical Twilight 6:25 AM PDT 8:10 PM PDT
Astronomical Twilight 5:54 AM PDT 8:40 PM PDT
Moon 8:07 AM PDT (3/13) 9:31 PM PDT (3/13)
Length of Visible Light 12h 44m
Length of Day
11h 52m
Waxing Crescent, 4% of the Moon is Illuminated
Mar 13
Waxing Crescent
Mar 19
First Quarter
Mar 27
Full
Apr 2
Last Quarter
Apr 10
New

Hourly Weather History & Observations

Time (PDT) Temp. Dew Point Humidity Pressure Visibility Wind Dir Wind Speed Gust Speed Precip Events Conditions
12:56 AM 54.0 °F 48.9 °F 83% 30.16 in 10.0 mi Calm Calm - N/A   Clear
1:56 AM 52.0 °F 48.0 °F 86% 30.16 in 10.0 mi Calm Calm - N/A   Clear
2:56 AM 51.1 °F 48.0 °F 89% 30.16 in 10.0 mi Calm Calm - N/A   Clear
3:56 AM 51.1 °F 46.9 °F 86% 30.16 in 10.0 mi Calm Calm - N/A   Clear
4:56 AM 50.0 °F 46.9 °F 89% 30.16 in 10.0 mi West 3.5 mph - N/A   Clear
5:56 AM 50.0 °F 46.9 °F 89% 30.16 in 10.0 mi Calm Calm - N/A   Clear
6:09 AM 50.0 °F 46.4 °F 87% 30.15 in 10.0 mi Calm Calm - N/A   Scattered Clouds
6:18 AM 51.8 °F 46.4 °F 82% 30.15 in 10.0 mi Calm Calm - N/A   Mostly Cloudy
6:56 AM 51.1 °F 46.9 °F 86% 30.17 in 10.0 mi Calm Calm - N/A   Overcast
7:22 AM 51.8 °F 48.2 °F 88% 30.16 in 1.8 mi Calm Calm - N/A   Overcast
7:38 AM 51.8 °F 50.0 °F 94% 30.17 in 3.0 mi Calm Calm - N/A   Overcast
7:56 AM 51.1 °F 50.0 °F 96% 30.18 in 5.0 mi Calm Calm - N/A   Overcast
8:17 AM 51.8 °F 48.2 °F 88% 30.18 in 6.0 mi Calm Calm - N/A   Overcast
8:56 AM 52.0 °F 50.0 °F 93% 30.19 in 4.0 mi Calm Calm - N/A   Overcast
9:15 AM 51.8 °F 50.0 °F 94% 30.18 in 2.5 mi SE 4.6 mph - N/A   Overcast
9:56 AM 53.1 °F 52.0 °F 96% 30.18 in 5.0 mi ESE 5.8 mph - N/A   Overcast
10:18 AM 55.4 °F 51.8 °F 88% 30.16 in 6.0 mi ESE 4.6 mph - N/A   Scattered Clouds
10:56 AM 60.1 °F 52.0 °F 75% 30.17 in 9.0 mi Calm Calm - N/A   Clear
11:56 AM 64.0 °F 53.1 °F 67% 30.16 in 7.0 mi Calm Calm - N/A   Clear
1:56 PM 68.0 °F 51.1 °F 55% 30.12 in 10.0 mi NNW 5.8 mph - N/A   Clear
2:56 PM 71.1 °F 52.0 °F 51% 30.11 in 10.0 mi NNW 10.4 mph - N/A   Clear
3:56 PM 71.1 °F 53.1 °F 53% 30.11 in 10.0 mi NNW 8.1 mph - N/A   Clear
4:56 PM 73.9 °F 53.1 °F 48% 30.09 in 10.0 mi North 10.4 mph - N/A   Clear
5:56 PM 73.9 °F 53.1 °F 48% 30.08 in 10.0 mi North 6.9 mph - N/A   Clear
6:56 PM 69.1 °F 54.0 °F 58% 30.08 in 10.0 mi NNW 5.8 mph - N/A   Clear
7:56 PM 61.0 °F 54.0 °F 78% 30.09 in 10.0 mi North 6.9 mph - N/A   Clear
8:56 PM 59.0 °F 53.1 °F 81% 30.10 in 10.0 mi Calm Calm - N/A   Clear
9:56 PM 57.0 °F 52.0 °F 83% 30.12 in 10.0 mi Calm Calm - N/A   Clear
10:56 PM 57.9 °F 51.1 °F 78% 30.12 in 10.0 mi Calm Calm - N/A   Clear
11:56 PM 59.0 °F 53.1 °F 81% 30.12 in 10.0 mi Calm Calm - N/A   Clear